Regional Weather Roundup
Issued by NWS

Home | Current Version | Previous Version | Text Only | Print | Product List | Glossary Off
Versions: 1 2 3 4 5 6 7 8 9 10 11 12 13 14 15 16 17 18 19 20 21 22 23 24 25 26 27 28 29 30 31 32 33 34 35 36 37 38 39 40 41 42 43 44 45 46 47 48 49 50

670
ASUS43 KOAX 200902
RWRNE

WEATHER ROUNDUP FOR NEBRASKA
NATIONAL WEATHER SERVICE OMAHA NE
300 AM CST FRI JAN 20 2017

NOTES: SATELLITE DATA IS BEING USED TO AUGMENT CLOUD COVER ABOVE
       12000 FEET.
       "FAIR" INDICATES FEW OR NO CLOUDS BELOW 12,000 FEET WITH NO
       SIGNIFICANT WEATHER AND/OR OBSTRUCTIONS TO VISIBILITY.

  * THESE STATIONS DO NOT REPORT WEATHER SUCH AS RAIN...SNOW OR FOG.

NEZ001>004-019>022-054>056-201000-
NEBRASKA PANHANDLE

CITY           SKY/WX    TMP DP  RH WIND       PRES   REMARKS
SCOTTSBLUFF    CLOUDY    25  20  81 NW5       29.48S WCI  19
ALLIANCE       CLOUDY    18  16  92 W5        29.46S WCI  11
CHADRON        CLOUDY    21  17  84 W12       29.44F WCI   9
KIMBALL        CLOUDY    29  26  88 NW5       29.48S WCI  24
SIDNEY         CLOUDY    29  23  78 NW10      29.48S WCI  20
$$

NEZ057>060-069>072-079>082-201000-
SOUTHWEST NEBRASKA

CITY           SKY/WX    TMP DP  RH WIND       PRES   REMARKS
NORTH PLATTE   CLOUDY    36  34  92 CALM      29.48F
IMPERIAL       FOG       30  29  96 SW9       29.49S VSB 1/2 WCI  22
LEXINGTON      FOG       34  33  96 CALM      29.51F VSB 3/4
MCCOOK         FOG       33  33 100 CALM      29.51R VSB 1/4
OGALLALA       FOG       30  29  98 W3        29.50R VSB 3/4
$$

NEZ005>010-023>029-035>040-094-201000-
NORTH CENTRAL NEBRASKA

CITY           SKY/WX    TMP DP  RH WIND       PRES   REMARKS
VALENTINE      CLOUDY    24  20  84 SW6       29.43S WCI  17
AINSWORTH      CLEAR     31  31 100 S13       29.43S WCI  22
BROKEN BOW     CLEAR     36  34  92 S5        29.48F WCI  32
O`NEILL        CLOUDY    40  38  91 S10       29.48S WCI  34
ORD            CLEAR     38  35  89 CALM      29.49F
THEDFORD       MOCLDY    32  31  98 SW12      29.46F WCI  23
$$

NEZ041-046>049-061>064-073>077-083>087-201000-
SOUTH CENTRAL NEBRASKA

CITY           SKY/WX    TMP DP  RH WIND       PRES   REMARKS
GRAND ISLAND   FOG       37  37 100 S5        29.54F VSB 1/2 WCI  33
AURORA         FOG       36  36 100 SE3       29.54F VSB 1/2
HASTINGS       FOG       38  38 100 E3        29.53F VSB 1/4
HEBRON         FOG       38  38  99 CALM      29.56F VSB 1/2
HOLDREGE       FOG       35  34  97 CALM      29.52F VSB 1/2
KEARNEY *      CLOUDY    37  34  87 CALM      29.52F VSB 1/4
YORK           FOG       37  37 100 CALM      29.56F VSB 1/4
$$

NEZ011>018-030>034-042>045-201000-
NORTHEAST NEBRASKA

CITY           SKY/WX    TMP DP  RH WIND       PRES   REMARKS
NORFOLK        CLOUDY    37  36  96 S6        29.54F WCI  32
ALBION         CLOUDY   N/A N/A N/A SE6       29.53F HAZE
BLAIR          CLOUDY    40  40  98 S3        29.59S FOG
FREMONT        CLOUDY    38  38 100 CALM      29.58F FOG
TEKAMAH        FOG       36  35  96 SE5       29.59S VSB 1/2 WCI  32
WAYNE          CLOUDY    37  37  99 S8        29.55F FOG     WCI  31
$$

NEZ050>053-065>068-078-088>093-201000-
SOUTHEAST NEBRASKA

CITY           SKY/WX    TMP DP  RH WIND       PRES   REMARKS
LINCOLN        FOG       38  38 100 NE3       29.58F VSB 1/2
OMAHA EPPLEY   FOG       37  34  89 NW5       29.61R VSB 1/2 WCI  33
BEATRICE       CLOUDY    39  39 100 CALM      29.57F FOG
FALLS CITY     FOG       40  40 100 CALM      29.58F VSB 1/2
NEBRASKA CITY  FOG       39  39 100 CALM      29.59F VSB 1/4
PLATTSMOUTH    FOG       39  37  93 E7        29.59S VSB 1/4 WCI  34
$$

NEZ044-045-051>053-067-201000-
OMAHA AREA

CITY           SKY/WX    TMP DP  RH WIND       PRES   REMARKS
OMAHA EPPLEY   FOG       37  34  89 NW5       29.61R VSB 1/2 WCI  33
BLAIR          CLOUDY    40  40  98 S3        29.59S FOG
FREMONT        CLOUDY    38  38 100 CALM      29.58F FOG
MILLARD        CLOUDY    40  40  97 CALM      29.60S FOG
PLATTSMOUTH    FOG       39  37  93 E7        29.59S VSB 1/4 WCI  34
WAHOO          FOG       36  36  98 E3        29.58F VSB 1/4
$$




USA.gov is the U.S. government's official web portal to all federal, state and local government web resources and services.